Time,TemperatureF,DewpointF,PressureIn,WindDirection,WindDirectionDegrees,WindSpeedMPH,WindSpeedGustMPH,Humidity,HourlyPrecipIn,Conditions,Clouds,dailyrainin,SolarRadiationWatts/m^2,SoftwareType,DateUTC
2013-03-16 00:02:00,57.2,14.0,29.68,NNW,329,0.0,-999.0,18,-99.99,,,0.00,0,weatherlink.com 1.10,2013-03-16 06:02:00,
2013-03-16 00:18:00,55.8,15.0,29.68,NNW,329,0.0,-999.0,20,-99.99,,,0.00,0,weatherlink.com 1.10,2013-03-16 06:18:00,
2013-03-16 00:33:00,53.9,14.0,29.68,NNW,328,0.0,-999.0,20,-99.99,,,0.00,0,weatherlink.com 1.10,2013-03-16 06:33:00,
2013-03-16 00:48:00,53.0,14.0,29.68,NNW,328,0.0,-999.0,21,-99.99,,,0.00,0,weatherlink.com 1.10,2013-03-16 06:48:00,
2013-03-16 01:03:00,52.9,15.0,29.68,NNW,328,0.0,-999.0,22,-99.99,,,0.00,0,weatherlink.com 1.10,2013-03-16 07:03:00,
2013-03-16 01:18:00,52.6,15.0,29.68,NNW,328,0.0,-999.0,22,-99.99,,,0.00,0,weatherlink.com 1.10,2013-03-16 07:18:00,
2013-03-16 01:33:00,51.6,14.0,29.68,NNW,338,0.0,-999.0,22,-99.99,,,0.00,0,weatherlink.com 1.10,2013-03-16 07:33:00,
2013-03-16 01:48:00,51.4,16.0,29.69,NNW,338,0.0,-999.0,24,-99.99,,,0.00,0,weatherlink.com 1.10,2013-03-16 07:48:00,
2013-03-16 02:03:00,51.8,17.0,29.68,NNW,338,1.0,-999.0,25,-99.99,,,0.00,0,weatherlink.com 1.10,2013-03-16 08:03:00,
2013-03-16 02:18:00,52.4,17.0,29.68,NNW,342,0.0,-999.0,25,-99.99,,,0.00,0,weatherlink.com 1.10,2013-03-16 08:18:00,
2013-03-16 02:33:00,52.1,17.0,29.68,NNW,337,0.0,-999.0,25,-99.99,,,0.00,0,weatherlink.com 1.10,2013-03-16 08:33:00,
2013-03-16 02:48:00,51.4,17.0,29.68,NNW,338,0.0,-999.0,25,-99.99,,,0.00,0,weatherlink.com 1.10,2013-03-16 08:48:00,
2013-03-16 03:03:00,50.3,16.0,29.68,NNW,338,0.0,-999.0,26,-99.99,,,0.00,0,weatherlink.com 1.10,2013-03-16 09:03:00,
2013-03-16 03:18:00,49.6,15.0,29.68,NNW,338,0.0,-999.0,25,-99.99,,,0.00,0,weatherlink.com 1.10,2013-03-16 09:18:00,
2013-03-16 03:33:00,48.4,14.0,29.68,NNW,338,0.0,-999.0,25,-99.99,,,0.00,0,weatherlink.com 1.10,2013-03-16 09:33:00,
2013-03-16 03:48:00,48.7,14.0,29.68,NNW,338,0.0,-999.0,25,-99.99,,,0.00,0,weatherlink.com 1.10,2013-03-16 09:48:00,
2013-03-16 04:03:00,49.1,15.0,29.68,NNW,338,0.0,-999.0,25,-99.99,,,0.00,0,weatherlink.com 1.10,2013-03-16 10:03:00,
2013-03-16 04:18:00,49.5,14.0,29.67,NNW,338,0.0,-999.0,24,-99.99,,,0.00,0,weatherlink.com 1.10,2013-03-16 10:18:00,
2013-03-16 04:33:00,49.2,15.0,29.67,NNW,330,0.0,-999.0,25,-99.99,,,0.00,0,weatherlink.com 1.10,2013-03-16 10:33:00,
2013-03-16 04:48:00,51.6,15.0,29.67,West,271,2.0,-999.0,23,-99.99,,,0.00,0,weatherlink.com 1.10,2013-03-16 10:48:00,
2013-03-16 05:03:00,51.9,14.0,29.67,West,269,1.0,-999.0,22,-99.99,,,0.00,0,weatherlink.com 1.10,2013-03-16 11:03:00,
2013-03-16 05:18:00,51.5,15.0,29.67,West,273,2.0,-999.0,23,-99.99,,,0.00,0,weatherlink.com 1.10,2013-03-16 11:18:00,
2013-03-16 05:34:00,52.0,15.0,29.67,WSW,242,1.0,-999.0,23,-99.99,,,0.00,0,weatherlink.com 1.10,2013-03-16 11:34:00,
2013-03-16 05:49:00,52.7,15.0,29.67,WSW,244,1.0,-999.0,22,-99.99,,,0.00,0,weatherlink.com 1.10,2013-03-16 11:49:00,
2013-03-16 06:04:00,52.4,15.0,29.66,WSW,255,4.0,-999.0,23,-99.99,,,0.00,0,weatherlink.com 1.10,2013-03-16 12:04:00,
2013-03-16 06:19:00,52.0,15.0,29.66,West,268,1.0,-999.0,23,-99.99,,,0.00,0,weatherlink.com 1.10,2013-03-16 12:19:00,
2013-03-16 06:34:00,51.5,16.0,29.66,West,264,0.0,-999.0,24,-99.99,,,0.00,0,weatherlink.com 1.10,2013-03-16 12:34:00,
2013-03-16 06:49:00,51.4,16.0,29.66,SW,214,1.0,-999.0,24,-99.99,,,0.00,0,weatherlink.com 1.10,2013-03-16 12:49:00,
2013-03-16 07:04:00,51.6,16.0,29.66,SW,229,0.0,-999.0,24,-99.99,,,0.00,0,weatherlink.com 1.10,2013-03-16 13:04:00,
2013-03-16 07:19:00,50.7,15.0,29.66,West,265,2.0,-999.0,24,-99.99,,,0.00,7,weatherlink.com 1.10,2013-03-16 13:19:00,
2013-03-16 07:34:00,49.9,15.0,29.66,West,264,1.0,-999.0,25,-99.99,,,0.00,25,weatherlink.com 1.10,2013-03-16 13:34:00,
2013-03-16 07:49:00,50.0,16.0,29.66,WSW,248,0.0,-999.0,26,-99.99,,,0.00,44,weatherlink.com 1.10,2013-03-16 13:49:00,
2013-03-16 08:04:00,51.5,17.0,29.66,West,267,1.0,-999.0,25,-99.99,,,0.00,76,weatherlink.com 1.10,2013-03-16 14:04:00,
2013-03-16 08:19:00,53.3,17.0,29.66,West,259,3.0,-999.0,24,-99.99,,,0.00,91,weatherlink.com 1.10,2013-03-16 14:19:00,
2013-03-16 08:33:00,54.6,17.0,29.66,WSW,242,1.0,-999.0,23,-99.99,,,0.00,111,weatherlink.com 1.10,2013-03-16 14:33:00,
2013-03-16 08:48:00,55.2,18.0,29.66,SW,232,2.0,-999.0,23,-99.99,,,0.00,107,weatherlink.com 1.10,2013-03-16 14:48:00,
2013-03-16 09:03:00,55.6,18.0,29.66,WSW,254,3.0,-999.0,23,-99.99,,,0.00,151,weatherlink.com 1.10,2013-03-16 15:03:00,
2013-03-16 09:19:00,56.2,19.0,29.66,SW,231,0.0,-999.0,23,-99.99,,,0.00,241,weatherlink.com 1.10,2013-03-16 15:19:00,
2013-03-16 09:34:00,57.4,19.0,29.66,SW,215,4.0,-999.0,22,-99.99,,,0.00,237,weatherlink.com 1.10,2013-03-16 15:34:00,
2013-03-16 09:49:00,58.4,18.0,29.66,WSW,257,3.0,-999.0,21,-99.99,,,0.00,272,weatherlink.com 1.10,2013-03-16 15:49:00,
2013-03-16 10:04:00,59.5,19.0,29.66,SSW,194,3.0,-999.0,21,-99.99,,,0.00,318,weatherlink.com 1.10,2013-03-16 16:04:00,
2013-03-16 10:19:00,60.2,20.0,29.66,SSW,202,7.0,-999.0,21,-99.99,,,0.00,288,weatherlink.com 1.10,2013-03-16 16:19:00,
2013-03-16 10:34:00,60.5,20.0,29.66,WSW,242,3.0,-999.0,21,-99.99,,,0.00,302,weatherlink.com 1.10,2013-03-16 16:34:00,
2013-03-16 10:49:00,61.2,20.0,29.66,SW,226,4.0,-999.0,20,-99.99,,,0.00,366,weatherlink.com 1.10,2013-03-16 16:49:00,
2013-03-16 11:04:00,62.0,20.0,29.65,West,259,3.0,-999.0,20,-99.99,,,0.00,327,weatherlink.com 1.10,2013-03-16 17:04:00,
2013-03-16 11:19:00,62.4,21.0,29.65,SW,223,3.0,-999.0,20,-99.99,,,0.00,362,weatherlink.com 1.10,2013-03-16 17:19:00,
2013-03-16 11:34:00,63.3,21.0,29.65,SSW,194,5.0,-999.0,20,-99.99,,,0.00,369,weatherlink.com 1.10,2013-03-16 17:34:00,
2013-03-16 11:49:00,63.9,21.0,29.64,SSW,197,5.0,-999.0,19,-99.99,,,0.00,376,weatherlink.com 1.10,2013-03-16 17:49:00,
2013-03-16 12:04:00,64.7,21.0,29.63,SW,235,5.0,-999.0,19,-99.99,,,0.00,492,weatherlink.com 1.10,2013-03-16 18:04:00,
2013-03-16 12:20:00,66.4,21.0,29.62,WSW,243,3.0,-999.0,18,-99.99,,,0.00,650,weatherlink.com 1.10,2013-03-16 18:20:00,
2013-03-16 12:35:00,67.7,21.0,29.62,WSW,257,15.0,-999.0,17,-99.99,,,0.00,677,weatherlink.com 1.10,2013-03-16 18:35:00,
2013-03-16 12:50:00,68.9,22.0,29.60,West,263,7.0,-999.0,17,-99.99,,,0.00,819,weatherlink.com 1.10,2013-03-16 18:50:00,
2013-03-16 13:05:00,69.9,22.0,29.59,WSW,246,1.0,-999.0,16,-99.99,,,0.00,636,weatherlink.com 1.10,2013-03-16 19:05:00,
2013-03-16 13:20:00,68.6,22.0,29.59,WSW,249,3.0,-999.0,17,-99.99,,,0.00,367,weatherlink.com 1.10,2013-03-16 19:20:00,
2013-03-16 13:35:00,68.9,22.0,29.57,South,173,9.0,-999.0,17,-99.99,,,0.00,543,weatherlink.com 1.10,2013-03-16 19:35:00,
2013-03-16 13:50:00,70.4,22.0,29.56,South,187,6.0,-999.0,16,-99.99,,,0.00,691,weatherlink.com 1.10,2013-03-16 19:50:00,
2013-03-16 14:05:00,69.7,21.0,29.55,South,188,8.0,-999.0,16,-99.99,,,0.00,338,weatherlink.com 1.10,2013-03-16 20:05:00,
2013-03-16 14:20:00,70.5,22.0,29.53,WSW,248,5.0,-999.0,16,-99.99,,,0.00,294,weatherlink.com 1.10,2013-03-16 20:20:00,
2013-03-16 14:35:00,70.2,22.0,29.53,West,260,6.0,-999.0,16,-99.99,,,0.00,206,weatherlink.com 1.10,2013-03-16 20:35:00,
2013-03-16 14:50:00,69.5,21.0,29.52,South,183,9.0,-999.0,16,-99.99,,,0.00,190,weatherlink.com 1.10,2013-03-16 20:50:00,
2013-03-16 15:05:00,69.4,20.0,29.52,SW,234,12.0,-999.0,15,-99.99,,,0.00,202,weatherlink.com 1.10,2013-03-16 21:05:00,
2013-03-16 15:20:00,69.5,21.0,29.51,SW,232,4.0,-999.0,16,-99.99,,,0.00,176,weatherlink.com 1.10,2013-03-16 21:20:00,
2013-03-16 15:35:00,69.6,21.0,29.51,South,188,5.0,-999.0,16,-99.99,,,0.00,197,weatherlink.com 1.10,2013-03-16 21:35:00,
2013-03-16 15:50:00,69.9,20.0,29.50,South,187,9.0,-999.0,15,-99.99,,,0.00,202,weatherlink.com 1.10,2013-03-16 21:50:00,
2013-03-16 16:05:00,70.2,22.0,29.49,SSW,196,9.0,-999.0,16,-99.99,,,0.00,199,weatherlink.com 1.10,2013-03-16 22:05:00,
2013-03-16 16:20:00,70.5,21.0,29.49,SW,217,8.0,-999.0,15,-99.99,,,0.00,174,weatherlink.com 1.10,2013-03-16 22:20:00,
2013-03-16 16:35:00,70.6,21.0,29.48,WNW,288,8.0,-999.0,15,-99.99,,,0.00,114,weatherlink.com 1.10,2013-03-16 22:35:00,
2013-03-16 16:50:00,70.3,20.0,29.47,WSW,254,2.0,-999.0,15,-99.99,,,0.00,88,weatherlink.com 1.10,2013-03-16 22:50:00,
2013-03-16 17:05:00,70.3,20.0,29.47,SW,234,13.0,-999.0,15,-99.99,,,0.00,90,weatherlink.com 1.10,2013-03-16 23:05:00,
2013-03-16 17:20:00,70.0,17.0,29.47,West,271,7.0,-999.0,13,-99.99,,,0.00,95,weatherlink.com 1.10,2013-03-16 23:20:00,
2013-03-16 17:35:00,69.7,20.0,29.48,SW,236,11.0,-999.0,15,-99.99,,,0.00,113,weatherlink.com 1.10,2013-03-16 23:35:00,
2013-03-16 17:50:00,69.9,15.0,29.47,West,260,5.0,-999.0,12,-99.99,,,0.00,65,weatherlink.com 1.10,2013-03-16 23:50:00,
2013-03-16 18:05:00,69.8,18.0,29.48,WNW,297,0.0,-999.0,14,-99.99,,,0.00,60,weatherlink.com 1.10,2013-03-17 00:05:00,
2013-03-16 18:20:00,68.5,20.0,29.48,NW,306,10.0,-999.0,16,-99.99,,,0.00,44,weatherlink.com 1.10,2013-03-17 00:20:00,
2013-03-16 18:36:00,67.4,22.0,29.49,NNW,333,9.0,-999.0,18,-99.99,,,0.00,28,weatherlink.com 1.10,2013-03-17 00:36:00,
2013-03-16 18:50:00,65.9,24.0,29.50,NNW,329,8.0,-999.0,20,-99.99,,,0.00,16,weatherlink.com 1.10,2013-03-17 00:50:00,
2013-03-16 19:05:00,64.9,24.0,29.50,NNW,329,9.0,-999.0,21,-99.99,,,0.00,5,weatherlink.com 1.10,2013-03-17 01:05:00,
2013-03-16 19:20:00,63.5,26.0,29.51,WNW,302,4.0,-999.0,24,-99.99,,,0.00,0,weatherlink.com 1.10,2013-03-17 01:20:00,
2013-03-16 19:35:00,62.3,28.0,29.52,NW,318,12.0,-999.0,27,-99.99,,,0.00,0,weatherlink.com 1.10,2013-03-17 01:35:00,
2013-03-16 19:50:00,60.9,28.0,29.52,NNW,331,11.0,-999.0,29,-99.99,,,0.00,0,weatherlink.com 1.10,2013-03-17 01:50:00,
2013-03-16 20:05:00,60.3,29.0,29.52,NW,321,5.0,-999.0,31,-99.99,,,0.00,0,weatherlink.com 1.10,2013-03-17 02:05:00,
2013-03-16 20:20:00,61.1,28.0,29.52,NW,319,8.0,-999.0,29,-99.99,,,0.00,0,weatherlink.com 1.10,2013-03-17 02:20:00,
2013-03-16 20:50:00,59.6,30.0,29.53,NW,322,5.0,-999.0,32,-99.99,,,0.00,0,weatherlink.com 1.10,2013-03-17 02:50:00,
2013-03-16 21:06:00,59.3,29.0,29.55,NW,309,4.0,-999.0,32,-99.99,,,0.00,0,weatherlink.com 1.10,2013-03-17 03:06:00,
2013-03-16 21:21:00,59.1,29.0,29.54,NW,323,6.0,-999.0,32,-99.99,,,0.00,0,weatherlink.com 1.10,2013-03-17 03:21:00,
2013-03-16 21:36:00,59.1,29.0,29.54,North,350,9.0,-999.0,32,-99.99,,,0.00,0,weatherlink.com 1.10,2013-03-17 03:36:00,
2013-03-16 21:51:00,58.5,29.0,29.55,North,360,8.0,-999.0,33,-99.99,,,0.00,0,weatherlink.com 1.10,2013-03-17 03:51:00,
2013-03-16 22:06:00,58.1,30.0,29.56,NNW,331,3.0,-999.0,34,-99.99,,,0.00,0,weatherlink.com 1.10,2013-03-17 04:06:00,
2013-03-16 22:21:00,57.2,31.0,29.57,WNW,298,5.0,-999.0,37,-99.99,,,0.00,0,weatherlink.com 1.10,2013-03-17 04:21:00,
2013-03-16 22:36:00,55.4,33.0,29.59,NW,321,2.0,-999.0,43,-99.99,,,0.00,0,weatherlink.com 1.10,2013-03-17 04:36:00,
2013-03-16 23:06:00,53.2,32.0,29.61,NNW,329,9.0,-999.0,45,-99.99,,,0.00,0,weatherlink.com 1.10,2013-03-17 05:06:00,
2013-03-16 23:21:00,53.8,32.0,29.61,WNW,298,12.0,-999.0,43,-99.99,,,0.00,0,weatherlink.com 1.10,2013-03-17 05:21:00,
2013-03-16 23:36:00,52.6,33.0,29.62,NW,308,13.0,-999.0,47,-99.99,,,0.00,0,weatherlink.com 1.10,2013-03-17 05:36:00,
2013-03-16 23:51:00,51.8,34.0,29.62,NW,324,2.0,-999.0,50,-99.99,,,0.00,0,weatherlink.com 1.10,2013-03-17 05:51:00,